contact:dominique.lefevre@mio.osupytheas.fr, maurice.libes@osupytheas.fr, didier.mallarino@osupytheas.fr
Project:EMSO http://www.emso-fr.org/EMSO-France
Depth: 2436.0 m
Title:EMSO Ligure Ouest : Data MII capteur MICROCAT
DateTime_Computer,Latitude,Longitude,Temperature,Conductivity,Pressure,DateTime_Instrument
DateTime_Computer,Latitude,Longitude,degC,S m-1,dbar,DateTime_Instrument
2022-04-24T00:00:08Z,42.805,6.029,13.3046,4.60107,2470.46,2022-4-24T02:01:47Z
2022-04-24T00:03:11Z,42.805,6.029,13.3011,4.60090,2470.45,2022-4-24T02:04:50Z
2022-04-24T00:06:14Z,42.805,6.029,13.3014,4.60112,2470.474,2022-4-24T02:07:53Z
2022-04-24T00:09:17Z,42.805,6.029,13.3009,4.60081,2470.437,2022-4-24T02:10:56Z
2022-04-24T00:12:20Z,42.805,6.029,13.3020,4.60098,2470.474,2022-4-24T02:13:59Z
2022-04-24T00:15:23Z,42.805,6.029,13.3041,4.60127,2470.474,2022-4-24T02:17:03Z
2022-04-24T00:18:27Z,42.805,6.029,13.3028,4.60121,2470.474,2022-4-24T02:20:06Z
2022-04-24T00:21:30Z,42.805,6.029,13.3016,4.60119,2470.45,2022-4-24T02:23:09Z
2022-04-24T00:24:33Z,42.805,6.029,13.3011,4.60101,2470.45,2022-4-24T02:26:12Z
2022-04-24T00:27:36Z,42.805,6.029,13.3009,4.60084,2470.46,2022-4-24T02:29:15Z
2022-04-24T00:30:39Z,42.805,6.029,13.3012,4.60101,2470.45,2022-4-24T02:32:18Z
2022-04-24T00:33:42Z,42.805,6.029,13.3020,4.60116,2470.474,2022-4-24T02:35:21Z
2022-04-24T00:36:45Z,42.805,6.029,13.3027,4.60119,2470.474,2022-4-24T02:38:24Z
2022-04-24T00:39:48Z,42.805,6.029,13.3023,4.60125,2470.474,2022-4-24T02:41:28Z
2022-04-24T00:42:52Z,42.805,6.029,13.3029,4.60109,2470.497,2022-4-24T02:44:31Z
2022-04-24T00:45:55Z,42.805,6.029,13.3035,4.60150,2470.45,2022-4-24T02:47:34Z
2022-04-24T00:48:58Z,42.805,6.029,13.3025,4.60132,2470.474,2022-4-24T02:50:37Z
2022-04-24T00:52:01Z,42.805,6.029,13.3024,4.60156,2470.497,2022-4-24T02:53:40Z
2022-04-24T00:55:04Z,42.805,6.029,13.3026,4.60119,2470.483,2022-4-24T02:56:43Z
2022-04-24T00:58:07Z,42.805,6.029,13.3029,4.60120,2470.497,2022-4-24T02:59:46Z
2022-04-24T01:01:10Z,42.805,6.029,13.3019,4.60123,2470.46,2022-4-24T03:02:49Z
2022-04-24T01:04:13Z,42.805,6.029,13.3030,4.60111,2470.483,2022-4-24T03:05:53Z
2022-04-24T01:07:17Z,42.805,6.029,13.3039,4.60116,2470.46,2022-4-24T03:08:56Z
2022-04-24T01:10:20Z,42.805,6.029,13.3014,4.60093,2470.544,2022-4-24T03:11:59Z
2022-04-24T01:13:23Z,42.805,6.029,13.3023,4.60117,2470.46,2022-4-24T03:15:02Z
2022-04-24T01:16:26Z,42.805,6.029,13.3015,4.60084,2470.46,2022-4-24T03:18:05Z
2022-04-24T01:19:29Z,42.805,6.029,13.3020,4.60110,2470.483,2022-4-24T03:21:08Z
2022-04-24T01:22:32Z,42.805,6.029,13.3020,4.60107,2470.46,2022-4-24T03:24:11Z
2022-04-24T01:25:35Z,42.805,6.029,13.3012,4.60080,2470.46,2022-4-24T03:27:14Z
2022-04-24T01:28:38Z,42.805,6.029,13.3013,4.60062,2470.46,2022-4-24T03:30:18Z
2022-04-24T01:31:42Z,42.805,6.029,13.3009,4.60077,2470.483,2022-4-24T03:33:21Z
2022-04-24T01:34:45Z,42.805,6.029,13.3023,4.60116,2470.474,2022-4-24T03:36:24Z
2022-04-24T01:37:48Z,42.805,6.029,13.3021,4.60079,2470.497,2022-4-24T03:39:27Z
2022-04-24T01:40:51Z,42.805,6.029,13.3021,4.60071,2470.52,2022-4-24T03:42:30Z
2022-04-24T01:43:54Z,42.805,6.029,13.3019,4.60104,2470.46,2022-4-24T03:45:33Z
2022-04-24T01:46:57Z,42.805,6.029,13.3027,4.60140,2470.474,2022-4-24T03:48:36Z
2022-04-24T01:50:00Z,42.805,6.029,13.3031,4.60127,2470.474,2022-4-24T03:51:39Z
2022-04-24T01:53:03Z,42.805,6.029,13.3035,4.60115,2470.45,2022-4-24T03:54:43Z
2022-04-24T01:56:07Z,42.805,6.029,13.3033,4.60122,2470.46,2022-4-24T03:57:46Z
2022-04-24T01:59:10Z,42.805,6.029,13.3032,4.60127,2470.474,2022-4-24T04:00:49Z
2022-04-24T02:02:13Z,42.805,6.029,13.3038,4.60138,2470.46,2022-4-24T04:03:52Z
2022-04-24T02:05:16Z,42.805,6.029,13.3037,4.60147,2470.474,2022-4-24T04:06:55Z
2022-04-24T02:08:19Z,42.805,6.029,13.3031,4.60117,2470.45,2022-4-24T04:09:58Z
2022-04-24T02:11:22Z,42.805,6.029,13.3016,4.60110,2470.46,2022-4-24T04:13:01Z
2022-04-24T02:14:25Z,42.805,6.029,13.3031,4.60132,2470.483,2022-4-24T04:16:04Z
2022-04-24T02:17:28Z,42.805,6.029,13.3043,4.60137,2470.46,2022-4-24T04:19:07Z
2022-04-24T02:20:31Z,42.805,6.029,13.3048,4.60107,2470.53,2022-4-24T04:22:11Z
2022-04-24T02:23:35Z,42.805,6.029,13.3035,4.60112,2470.497,2022-4-24T04:25:14Z
2022-04-24T02:26:38Z,42.805,6.029,13.3026,4.60120,2470.46,2022-4-24T04:28:17Z
2022-04-24T02:29:41Z,42.805,6.029,13.3039,4.60104,2470.52,2022-4-24T04:31:20Z
2022-04-24T02:32:44Z,42.805,6.029,13.3029,4.60118,2470.45,2022-4-24T04:34:23Z
2022-04-24T02:35:47Z,42.805,6.029,13.3035,4.60127,2470.483,2022-4-24T04:37:26Z
2022-04-24T02:38:50Z,42.805,6.029,13.3021,4.60142,2470.497,2022-4-24T04:40:29Z
2022-04-24T02:41:53Z,42.805,6.029,13.3029,4.60123,2470.46,2022-4-24T04:43:32Z
2022-04-24T02:44:56Z,42.805,6.029,13.3032,4.60130,2470.474,2022-4-24T04:46:36Z
2022-04-24T02:48:00Z,42.805,6.029,13.3024,4.60103,2470.497,2022-4-24T04:49:39Z
2022-04-24T02:51:03Z,42.805,6.029,13.3014,4.60103,2470.497,2022-4-24T04:52:42Z
2022-04-24T02:54:06Z,42.805,6.029,13.3024,4.60110,2470.46,2022-4-24T04:55:45Z
2022-04-24T02:57:09Z,42.805,6.029,13.3017,4.60108,2470.474,2022-4-24T04:58:48Z
2022-04-24T03:00:12Z,42.805,6.029,13.3022,4.60107,2470.46,2022-4-24T05:01:51Z
2022-04-24T03:03:15Z,42.805,6.029,13.3022,4.60102,2470.483,2022-4-24T05:04:54Z
2022-04-24T03:06:18Z,42.805,6.029,13.3011,4.60084,2470.474,2022-4-24T05:07:57Z
2022-04-24T03:09:21Z,42.805,6.029,13.3011,4.60091,2470.46,2022-4-24T05:11:01Z
2022-04-24T03:12:25Z,42.805,6.029,13.3014,4.60081,2470.46,2022-4-24T05:14:04Z
2022-04-24T03:15:28Z,42.805,6.029,13.3020,4.60068,2470.437,2022-4-24T05:17:07Z
2022-04-24T03:18:31Z,42.805,6.029,13.3019,4.60067,2470.427,2022-4-24T05:20:10Z
2022-04-24T03:21:34Z,42.805,6.029,13.3019,4.60084,2470.46,2022-4-24T05:23:13Z
2022-04-24T03:24:37Z,42.805,6.029,13.3016,4.60103,2470.46,2022-4-24T05:26:16Z
2022-04-24T03:27:40Z,42.805,6.029,13.3020,4.60109,2470.437,2022-4-24T05:29:19Z
2022-04-24T03:30:43Z,42.805,6.029,13.3016,4.60102,2470.474,2022-4-24T05:32:22Z
2022-04-24T03:33:46Z,42.805,6.029,13.3018,4.60096,2470.46,2022-4-24T05:35:26Z
2022-04-24T03:36:50Z,42.805,6.029,13.3017,4.60107,2470.474,2022-4-24T05:38:29Z
2022-04-24T03:39:53Z,42.805,6.029,13.3023,4.60119,2470.45,2022-4-24T05:41:32Z
2022-04-24T03:42:56Z,42.805,6.029,13.3011,4.60111,2470.46,2022-4-24T05:44:35Z
2022-04-24T03:45:59Z,42.805,6.029,13.3014,4.60094,2470.45,2022-4-24T05:47:38Z
2022-04-24T03:49:02Z,42.805,6.029,13.3016,4.60068,2470.45,2022-4-24T05:50:41Z
2022-04-24T03:52:05Z,42.805,6.029,13.3015,4.60067,2470.423,2022-4-24T05:53:44Z
2022-04-24T03:55:08Z,42.805,6.029,13.3023,4.60116,2470.437,2022-4-24T05:56:47Z
2022-04-24T03:58:11Z,42.805,6.029,13.3019,4.60103,2470.427,2022-4-24T05:59:50Z
2022-04-24T04:01:14Z,42.805,6.029,13.3014,4.60087,2470.45,2022-4-24T06:02:54Z
2022-04-24T04:04:18Z,42.805,6.029,13.3011,4.60107,2470.474,2022-4-24T06:05:57Z
2022-04-24T04:07:21Z,42.805,6.029,13.3017,4.60109,2470.474,2022-4-24T06:09:00Z
2022-04-24T04:10:24Z,42.805,6.029,13.3014,4.60112,2470.497,2022-4-24T06:12:03Z
2022-04-24T04:13:27Z,42.805,6.029,13.3015,4.60079,2470.46,2022-4-24T06:15:06Z
2022-04-24T04:16:30Z,42.805,6.029,13.3017,4.60089,2470.474,2022-4-24T06:18:09Z
2022-04-24T04:19:33Z,42.805,6.029,13.3016,4.60125,2470.46,2022-4-24T06:21:12Z
2022-04-24T04:22:36Z,42.805,6.029,13.3014,4.60087,2470.413,2022-4-24T06:24:15Z
2022-04-24T04:25:39Z,42.805,6.029,13.3011,4.60100,2470.46,2022-4-24T06:27:19Z
2022-04-24T04:28:43Z,42.805,6.029,13.3016,4.60092,2470.437,2022-4-24T06:30:22Z
2022-04-24T04:31:46Z,42.805,6.029,13.3015,4.60080,2470.437,2022-4-24T06:33:25Z
2022-04-24T04:34:49Z,42.805,6.029,13.3021,4.60088,2470.474,2022-4-24T06:36:28Z
2022-04-24T04:37:52Z,42.805,6.029,13.3019,4.60087,2470.45,2022-4-24T06:39:31Z
2022-04-24T04:40:55Z,42.805,6.029,13.3019,4.60089,2470.437,2022-4-24T06:42:34Z
2022-04-24T04:43:58Z,42.805,6.029,13.3026,4.60090,2470.427,2022-4-24T06:45:37Z
2022-04-24T04:47:01Z,42.805,6.029,13.3010,4.60087,2470.437,2022-4-24T06:48:40Z
2022-04-24T04:50:04Z,42.805,6.029,13.3023,4.60080,2470.427,2022-4-24T06:51:44Z
2022-04-24T04:53:08Z,42.805,6.029,13.3011,4.60078,2470.404,2022-4-24T06:54:47Z
2022-04-24T04:56:11Z,42.805,6.029,13.3009,4.60094,2470.45,2022-4-24T06:57:50Z
2022-04-24T04:59:14Z,42.805,6.029,13.3013,4.60078,2470.413,2022-4-24T07:00:53Z
2022-04-24T05:02:17Z,42.805,6.029,13.3010,4.60068,2470.39,2022-4-24T07:03:56Z
2022-04-24T05:05:20Z,42.805,6.029,13.3058,4.60097,2470.413,2022-4-24T07:06:59Z
2022-04-24T05:08:23Z,42.805,6.029,13.3016,4.60087,2470.404,2022-4-24T07:10:02Z
2022-04-24T05:11:26Z,42.805,6.029,13.3009,4.60064,2470.404,2022-4-24T07:13:05Z
2022-04-24T05:14:29Z,42.805,6.029,13.3010,4.60075,2470.413,2022-4-24T07:16:09Z
2022-04-24T05:17:32Z,42.805,6.029,13.3012,4.60077,2470.427,2022-4-24T07:19:12Z
2022-04-24T05:20:36Z,42.805,6.029,13.3021,4.60093,2470.39,2022-4-24T07:22:15Z
2022-04-24T05:23:39Z,42.805,6.029,13.3029,4.60085,2470.39,2022-4-24T07:25:18Z
2022-04-24T05:26:42Z,42.805,6.029,13.3028,4.60098,2470.39,2022-4-24T07:28:21Z
2022-04-24T05:29:45Z,42.805,6.029,13.3029,4.60079,2470.39,2022-4-24T07:31:24Z
2022-04-24T05:32:48Z,42.805,6.029,13.3026,4.60093,2470.404,2022-4-24T07:34:27Z
2022-04-24T05:35:51Z,42.805,6.029,13.3007,4.60077,2470.39,2022-4-24T07:37:30Z
2022-04-24T05:38:54Z,42.805,6.029,13.3025,4.60099,2470.38,2022-4-24T07:40:33Z
2022-04-24T05:41:57Z,42.805,6.029,13.3025,4.60104,2470.404,2022-4-24T07:43:37Z
2022-04-24T05:45:01Z,42.805,6.029,13.3034,4.60110,2470.404,2022-4-24T07:46:40Z
2022-04-24T05:48:04Z,42.805,6.029,13.3021,4.60082,2470.38,2022-4-24T07:49:43Z
2022-04-24T05:51:07Z,42.805,6.029,13.3009,4.60080,2470.413,2022-4-24T07:52:46Z
2022-04-24T05:54:10Z,42.805,6.029,13.3026,4.60092,2470.427,2022-4-24T07:55:49Z
2022-04-24T05:57:13Z,42.805,6.029,13.3015,4.60069,2470.427,2022-4-24T07:58:52Z
2022-04-24T06:00:16Z,42.805,6.029,13.3027,4.60106,2470.404,2022-4-24T08:01:55Z
2022-04-24T06:03:19Z,42.805,6.029,13.3023,4.60089,2470.38,2022-4-24T08:04:58Z
2022-04-24T06:06:22Z,42.805,6.029,13.3021,4.60091,2470.413,2022-4-24T08:08:02Z
2022-04-24T06:09:26Z,42.805,6.029,13.3032,4.60088,2470.366,2022-4-24T08:11:05Z
2022-04-24T06:12:29Z,42.805,6.029,13.3041,4.60081,2470.404,2022-4-24T08:14:08Z
2022-04-24T06:15:32Z,42.805,6.029,13.3040,4.60096,2470.38,2022-4-24T08:17:11Z
2022-04-24T06:18:35Z,42.805,6.029,13.3017,4.60110,2470.366,2022-4-24T08:20:14Z
2022-04-24T06:21:38Z,42.805,6.029,13.3022,4.60107,2470.366,2022-4-24T08:23:17Z
2022-04-24T06:24:41Z,42.805,6.029,13.3023,4.60119,2470.366,2022-4-24T08:26:20Z
2022-04-24T06:27:44Z,42.805,6.029,13.3014,4.60105,2470.357,2022-4-24T08:29:23Z
2022-04-24T06:30:47Z,42.805,6.029,13.3030,4.60087,2470.366,2022-4-24T08:32:27Z
2022-04-24T06:33:51Z,42.805,6.029,13.3019,4.60127,2470.38,2022-4-24T08:35:30Z
2022-04-24T06:36:54Z,42.805,6.029,13.3016,4.60119,2470.366,2022-4-24T08:38:33Z
2022-04-24T06:39:57Z,42.805,6.029,13.3022,4.60097,2470.39,2022-4-24T08:41:36Z
2022-04-24T06:43:00Z,42.805,6.029,13.3029,4.60089,2470.334,2022-4-24T08:44:39Z
2022-04-24T06:46:03Z,42.805,6.029,13.3051,4.60096,2470.32,2022-4-24T08:47:42Z
2022-04-24T06:49:06Z,42.805,6.029,13.3035,4.60081,2470.343,2022-4-24T08:50:45Z
2022-04-24T06:52:09Z,42.805,6.029,13.3017,4.60108,2470.32,2022-4-24T08:53:48Z
2022-04-24T06:55:12Z,42.805,6.029,13.3027,4.60112,2470.38,2022-4-24T08:56:52Z
2022-04-24T06:58:16Z,42.805,6.029,13.3036,4.60114,2470.343,2022-4-24T08:59:55Z
2022-04-24T07:01:19Z,42.805,6.029,13.3031,4.60101,2470.38,2022-4-24T09:02:58Z
2022-04-24T07:04:22Z,42.805,6.029,13.3033,4.60110,2470.38,2022-4-24T09:06:01Z
2022-04-24T07:07:25Z,42.805,6.029,13.3013,4.60107,2470.357,2022-4-24T09:09:04Z
2022-04-24T07:10:28Z,42.805,6.029,13.3022,4.60104,2470.38,2022-4-24T09:12:07Z
2022-04-24T07:13:31Z,42.805,6.029,13.3042,4.60114,2470.357,2022-4-24T09:15:10Z
2022-04-24T07:16:34Z,42.805,6.029,13.3043,4.60114,2470.32,2022-4-24T09:18:13Z
2022-04-24T07:19:37Z,42.805,6.029,13.3045,4.60119,2470.334,2022-4-24T09:21:16Z
2022-04-24T07:22:40Z,42.805,6.029,13.3040,4.60124,2470.32,2022-4-24T09:24:20Z
2022-04-24T07:25:44Z,42.805,6.029,13.3047,4.60136,2470.366,2022-4-24T09:27:23Z
2022-04-24T07:28:47Z,42.805,6.029,13.3034,4.60148,2470.357,2022-4-24T09:30:26Z
2022-04-24T07:31:50Z,42.805,6.029,13.3041,4.60087,2470.32,2022-4-24T09:33:29Z
2022-04-24T07:34:53Z,42.805,6.029,13.3060,4.60135,2470.306,2022-4-24T09:36:32Z
2022-04-24T07:37:56Z,42.805,6.029,13.3056,4.60170,2470.334,2022-4-24T09:39:35Z
2022-04-24T07:40:59Z,42.805,6.029,13.3035,4.60097,2470.287,2022-4-24T09:42:38Z
2022-04-24T07:44:02Z,42.805,6.029,13.3043,4.60107,2470.334,2022-4-24T09:45:41Z
2022-04-24T07:47:05Z,42.805,6.029,13.3058,4.60082,2470.31,2022-4-24T09:48:45Z
2022-04-24T07:50:09Z,42.805,6.029,13.3022,4.60113,2470.32,2022-4-24T09:51:48Z
2022-04-24T07:53:12Z,42.805,6.029,13.3030,4.60096,2470.273,2022-4-24T09:54:51Z
2022-04-24T07:56:15Z,42.805,6.029,13.3038,4.60086,2470.334,2022-4-24T09:57:54Z
2022-04-24T07:59:18Z,42.805,6.029,13.3036,4.60089,2470.334,2022-4-24T10:00:57Z
2022-04-24T08:02:21Z,42.805,6.029,13.3040,4.60067,2470.297,2022-4-24T10:04:00Z
2022-04-24T08:05:24Z,42.805,6.029,13.3019,4.60081,2470.31,2022-4-24T10:07:03Z
2022-04-24T08:08:27Z,42.805,6.029,13.3027,4.60116,2470.31,2022-4-24T10:10:06Z
2022-04-24T08:11:30Z,42.805,6.029,13.3030,4.60132,2470.334,2022-4-24T10:13:10Z
2022-04-24T08:14:33Z,42.805,6.029,13.3047,4.60139,2470.32,2022-4-24T10:16:13Z
2022-04-24T08:17:37Z,42.805,6.029,13.3076,4.60114,2470.297,2022-4-24T10:19:16Z
2022-04-24T08:20:40Z,42.805,6.029,13.3076,4.60112,2470.334,2022-4-24T10:22:19Z
2022-04-24T08:23:43Z,42.805,6.029,13.3027,4.60103,2470.287,2022-4-24T10:25:22Z
2022-04-24T08:26:46Z,42.805,6.029,13.3046,4.60107,2470.31,2022-4-24T10:28:25Z
2022-04-24T08:29:49Z,42.805,6.029,13.3039,4.60087,2470.297,2022-4-24T10:31:28Z
2022-04-24T08:32:52Z,42.805,6.029,13.3048,4.60139,2470.297,2022-4-24T10:34:31Z
2022-04-24T08:35:55Z,42.805,6.029,13.3058,4.60144,2470.31,2022-4-24T10:37:35Z
2022-04-24T08:38:59Z,42.805,6.029,13.3058,4.60094,2470.273,2022-4-24T10:40:38Z
2022-04-24T08:42:02Z,42.805,6.029,13.3053,4.60122,2470.297,2022-4-24T10:43:41Z
2022-04-24T08:45:05Z,42.805,6.029,13.3056,4.60125,2470.38,2022-4-24T10:46:44Z
2022-04-24T08:48:08Z,42.805,6.029,13.3058,4.60148,2470.357,2022-4-24T10:49:47Z
2022-04-24T08:51:11Z,42.805,6.029,13.3072,4.60180,2470.32,2022-4-24T10:52:50Z
2022-04-24T08:54:14Z,42.805,6.029,13.3029,4.60143,2470.31,2022-4-24T10:55:53Z
2022-04-24T08:57:17Z,42.805,6.029,13.3056,4.60131,2470.297,2022-4-24T10:58:56Z
2022-04-24T09:00:20Z,42.805,6.029,13.3049,4.60136,2470.31,2022-4-24T11:02:00Z
2022-04-24T09:03:24Z,42.805,6.029,13.3058,4.60134,2470.297,2022-4-24T11:05:03Z
2022-04-24T09:06:27Z,42.805,6.029,13.3071,4.60151,2470.273,2022-4-24T11:08:06Z
2022-04-24T09:09:30Z,42.805,6.029,13.3046,4.60131,2470.334,2022-4-24T11:11:09Z
2022-04-24T09:12:33Z,42.805,6.029,13.3041,4.60072,2470.287,2022-4-24T11:14:12Z
2022-04-24T09:15:36Z,42.805,6.029,13.3036,4.60125,2470.287,2022-4-24T11:17:15Z
2022-04-24T09:18:39Z,42.805,6.029,13.3032,4.60133,2470.38,2022-4-24T11:20:18Z
2022-04-24T09:21:42Z,42.805,6.029,13.3047,4.60105,2470.343,2022-4-24T11:23:21Z
2022-04-24T09:24:45Z,42.805,6.029,13.3054,4.60145,2470.357,2022-4-24T11:26:25Z
2022-04-24T09:27:49Z,42.805,6.029,13.3038,4.60155,2470.334,2022-4-24T11:29:28Z
2022-04-24T09:30:52Z,42.805,6.029,13.3056,4.60118,2470.297,2022-4-24T11:32:31Z
2022-04-24T09:33:55Z,42.805,6.029,13.3029,4.60127,2470.32,2022-4-24T11:35:34Z
2022-04-24T09:36:58Z,42.805,6.029,13.3041,4.60139,2470.297,2022-4-24T11:38:37Z
2022-04-24T09:40:01Z,42.805,6.029,13.3059,4.60155,2470.297,2022-4-24T11:41:40Z
2022-04-24T09:43:04Z,42.805,6.029,13.3065,4.60161,2470.32,2022-4-24T11:44:43Z
2022-04-24T09:46:07Z,42.805,6.029,13.3055,4.60104,2470.297,2022-4-24T11:47:46Z
2022-04-24T09:49:10Z,42.805,6.029,13.3043,4.60115,2470.287,2022-4-24T11:50:50Z
2022-04-24T09:52:14Z,42.805,6.029,13.3046,4.60147,2470.297,2022-4-24T11:53:53Z
2022-04-24T09:55:17Z,42.805,6.029,13.3054,4.60117,2470.31,2022-4-24T11:56:56Z
2022-04-24T09:58:20Z,42.805,6.029,13.3069,4.60143,2470.273,2022-4-24T11:59:59Z
2022-04-24T10:01:23Z,42.805,6.029,13.3049,4.60097,2470.287,2022-4-24T12:03:02Z
2022-04-24T10:04:26Z,42.805,6.029,13.3041,4.60111,2470.264,2022-4-24T12:06:05Z
2022-04-24T10:07:29Z,42.805,6.029,13.3031,4.60102,2470.287,2022-4-24T12:09:08Z
2022-04-24T10:10:32Z,42.805,6.029,13.3048,4.60139,2470.287,2022-4-24T12:12:11Z
2022-04-24T10:13:35Z,42.805,6.029,13.3061,4.60149,2470.334,2022-4-24T12:15:15Z
2022-04-24T10:16:39Z,42.805,6.029,13.3066,4.60083,2470.287,2022-4-24T12:18:18Z
2022-04-24T10:19:42Z,42.805,6.029,13.3025,4.60105,2470.31,2022-4-24T12:21:21Z
2022-04-24T10:22:45Z,42.805,6.029,13.3031,4.60125,2470.31,2022-4-24T12:24:24Z
2022-04-24T10:25:48Z,42.805,6.029,13.3022,4.60135,2470.31,2022-4-24T12:27:27Z
2022-04-24T10:28:51Z,42.805,6.029,13.3032,4.60110,2470.273,2022-4-24T12:30:30Z
2022-04-24T10:31:54Z,42.805,6.029,13.3042,4.60206,2470.31,2022-4-24T12:33:33Z
2022-04-24T10:34:57Z,42.805,6.029,13.3058,4.60119,2470.297,2022-4-24T12:36:36Z
2022-04-24T10:38:00Z,42.805,6.029,13.3074,4.60121,2470.297,2022-4-24T12:39:40Z
2022-04-24T10:41:04Z,42.805,6.029,13.3060,4.60149,2470.297,2022-4-24T12:42:43Z
2022-04-24T10:44:07Z,42.805,6.029,13.3029,4.60109,2470.287,2022-4-24T12:45:46Z
2022-04-24T10:47:10Z,42.805,6.029,13.3048,4.60092,2470.31,2022-4-24T12:48:49Z
2022-04-24T10:50:13Z,42.805,6.029,13.3063,4.60092,2470.273,2022-4-24T12:51:52Z
2022-04-24T10:53:16Z,42.805,6.029,13.3043,4.60133,2470.31,2022-4-24T12:54:55Z
2022-04-24T10:56:19Z,42.805,6.029,13.3055,4.60135,2470.31,2022-4-24T12:57:58Z
2022-04-24T10:59:22Z,42.805,6.029,13.3063,4.60135,2470.287,2022-4-24T13:01:01Z
2022-04-24T11:02:25Z,42.805,6.029,13.3077,4.60135,2470.31,2022-4-24T13:04:05Z
2022-04-24T11:05:29Z,42.805,6.029,13.3048,4.60145,2470.31,2022-4-24T13:07:08Z
2022-04-24T11:08:32Z,42.805,6.029,13.3046,4.60144,2470.297,2022-4-24T13:10:11Z
2022-04-24T11:11:35Z,42.805,6.029,13.3047,4.60116,2470.297,2022-4-24T13:13:14Z
2022-04-24T11:14:38Z,42.805,6.029,13.3053,4.60127,2470.404,2022-4-24T13:16:17Z
2022-04-24T11:17:41Z,42.805,6.029,13.3065,4.60110,2470.357,2022-4-24T13:19:20Z
2022-04-24T11:20:44Z,42.805,6.029,13.3066,4.60130,2470.33,2022-4-24T13:22:23Z
2022-04-24T11:23:47Z,42.805,6.029,13.3080,4.60157,2470.32,2022-4-24T13:25:27Z
2022-04-24T11:26:50Z,42.805,6.029,13.3081,4.60147,2470.32,2022-4-24T13:28:30Z
2022-04-24T11:29:54Z,42.805,6.029,13.3068,4.60115,2470.31,2022-4-24T13:31:33Z
2022-04-24T11:32:57Z,42.805,6.029,13.3073,4.60081,2470.31,2022-4-24T13:34:36Z
2022-04-24T11:36:00Z,42.805,6.029,13.3055,4.60115,2470.297,2022-4-24T13:37:39Z
2022-04-24T11:39:03Z,42.805,6.029,13.3041,4.60109,2470.297,2022-4-24T13:40:42Z
2022-04-24T11:42:06Z,42.805,6.029,13.3061,4.60127,2470.334,2022-4-24T13:43:45Z
2022-04-24T11:45:09Z,42.805,6.029,13.3067,4.60095,2470.297,2022-4-24T13:46:48Z
2022-04-24T11:48:12Z,42.805,6.029,13.3049,4.60110,2470.31,2022-4-24T13:49:52Z
2022-04-24T11:51:15Z,42.805,6.029,13.3058,4.60151,2470.334,2022-4-24T13:52:55Z
2022-04-24T11:54:19Z,42.805,6.029,13.3056,4.60132,2470.31,2022-4-24T13:55:58Z
2022-04-24T11:57:22Z,42.805,6.029,13.3035,4.60132,2470.297,2022-4-24T13:59:01Z
2022-04-24T12:00:25Z,42.805,6.029,13.3038,4.60235,2470.31,2022-4-24T14:02:04Z
2022-04-24T12:03:28Z,42.805,6.029,13.3031,4.60133,2470.31,2022-4-24T14:05:07Z
2022-04-24T12:06:31Z,42.805,6.029,13.3045,4.60149,2470.334,2022-4-24T14:08:10Z
2022-04-24T12:09:34Z,42.805,6.029,13.3069,4.60134,2470.287,2022-4-24T14:11:13Z
2022-04-24T12:12:37Z,42.805,6.029,13.3032,4.60167,2470.287,2022-4-24T14:14:17Z
2022-04-24T12:15:40Z,42.805,6.029,13.3047,4.60133,2470.297,2022-4-24T14:17:20Z
2022-04-24T12:18:44Z,42.805,6.029,13.3034,4.60092,2470.297,2022-4-24T14:20:23Z
2022-04-24T12:21:47Z,42.805,6.029,13.3043,4.60080,2470.31,2022-4-24T14:23:26Z
2022-04-24T12:24:50Z,42.805,6.029,13.3019,4.60078,2470.297,2022-4-24T14:26:29Z
2022-04-24T12:27:53Z,42.805,6.029,13.3041,4.60090,2470.273,2022-4-24T14:29:32Z
2022-04-24T12:30:56Z,42.805,6.029,13.3015,4.60081,2470.273,2022-4-24T14:32:35Z
2022-04-24T12:33:59Z,42.805,6.029,13.3039,4.60094,2470.287,2022-4-24T14:35:38Z
2022-04-24T12:37:02Z,42.805,6.029,13.3037,4.60114,2470.297,2022-4-24T14:38:42Z
2022-04-24T12:40:05Z,42.805,6.029,13.3069,4.60097,2470.31,2022-4-24T14:41:45Z
2022-04-24T12:43:09Z,42.805,6.029,13.3053,4.60093,2470.32,2022-4-24T14:44:48Z
2022-04-24T12:46:12Z,42.805,6.029,13.3056,4.60093,2470.32,2022-4-24T14:47:51Z
2022-04-24T12:49:15Z,42.805,6.029,13.3062,4.60057,2470.297,2022-4-24T14:50:54Z
2022-04-24T12:52:18Z,42.805,6.029,13.3038,4.60055,2470.31,2022-4-24T14:53:57Z
2022-04-24T12:55:21Z,42.805,6.029,13.3044,4.60098,2470.273,2022-4-24T14:57:00Z
2022-04-24T12:58:24Z,42.805,6.029,13.3031,4.60091,2470.273,2022-4-24T15:00:03Z
2022-04-24T13:01:27Z,42.805,6.029,13.3020,4.60079,2470.297,2022-4-24T15:03:07Z
2022-04-24T13:04:30Z,42.805,6.029,13.3022,4.60084,2470.32,2022-4-24T15:06:10Z
2022-04-24T13:07:34Z,42.805,6.029,13.3047,4.60064,2470.31,2022-4-24T15:09:13Z
2022-04-24T13:10:37Z,42.805,6.029,13.3042,4.60085,2470.287,2022-4-24T15:12:16Z
2022-04-24T13:13:40Z,42.805,6.029,13.3044,4.60096,2470.32,2022-4-24T15:15:19Z
2022-04-24T13:16:43Z,42.805,6.029,13.3040,4.60062,2470.273,2022-4-24T15:18:22Z
2022-04-24T13:19:46Z,42.805,6.029,13.3034,4.60078,2470.297,2022-4-24T15:21:25Z
2022-04-24T13:22:49Z,42.805,6.029,13.3039,4.60082,2470.31,2022-4-24T15:24:28Z
2022-04-24T13:25:52Z,42.805,6.029,13.3029,4.60062,2470.273,2022-4-24T15:27:32Z
2022-04-24T13:28:55Z,42.805,6.029,13.3039,4.60081,2470.273,2022-4-24T15:30:35Z
2022-04-24T13:31:59Z,42.805,6.029,13.3037,4.60090,2470.287,2022-4-24T15:33:38Z
2022-04-24T13:35:02Z,42.805,6.029,13.3029,4.60076,2470.31,2022-4-24T15:36:41Z
2022-04-24T13:38:05Z,42.805,6.029,13.3019,4.60072,2470.31,2022-4-24T15:39:44Z
2022-04-24T13:41:08Z,42.805,6.029,13.3026,4.60067,2470.287,2022-4-24T15:42:47Z
2022-04-24T13:44:11Z,42.805,6.029,13.3037,4.60084,2470.287,2022-4-24T15:45:50Z
2022-04-24T13:47:14Z,42.805,6.029,13.3023,4.60072,2470.297,2022-4-24T15:48:53Z
2022-04-24T13:50:17Z,42.805,6.029,13.3018,4.60047,2470.273,2022-4-24T15:51:57Z
2022-04-24T13:53:21Z,42.805,6.029,13.3020,4.60043,2470.297,2022-4-24T15:55:00Z
2022-04-24T13:56:24Z,42.805,6.029,13.3018,4.60075,2470.31,2022-4-24T15:58:03Z
2022-04-24T13:59:27Z,42.805,6.029,13.3019,4.60050,2470.273,2022-4-24T16:01:06Z
2022-04-24T14:02:30Z,42.805,6.029,13.3013,4.60072,2470.297,2022-4-24T16:04:09Z
2022-04-24T14:05:33Z,42.805,6.029,13.3014,4.60083,2470.297,2022-4-24T16:07:12Z
2022-04-24T14:08:36Z,42.805,6.029,13.3024,4.60069,2470.31,2022-4-24T16:10:15Z
2022-04-24T14:11:39Z,42.805,6.029,13.3034,4.60059,2470.32,2022-4-24T16:13:18Z
2022-04-24T14:14:42Z,42.805,6.029,13.3036,4.60062,2470.31,2022-4-24T16:16:22Z
2022-04-24T14:17:45Z,42.805,6.029,13.3047,4.60073,2470.297,2022-4-24T16:19:25Z
2022-04-24T14:20:49Z,42.805,6.029,13.3018,4.60068,2470.31,2022-4-24T16:22:28Z
2022-04-24T14:23:52Z,42.805,6.029,13.3023,4.60062,2470.273,2022-4-24T16:25:31Z
2022-04-24T14:26:55Z,42.805,6.029,13.3011,4.60078,2470.32,2022-4-24T16:28:34Z
2022-04-24T14:29:58Z,42.805,6.029,13.3024,4.60060,2470.297,2022-4-24T16:31:37Z
2022-04-24T14:33:01Z,42.805,6.029,13.3049,4.60052,2470.297,2022-4-24T16:34:40Z
2022-04-24T14:36:04Z,42.805,6.029,13.3028,4.60064,2470.31,2022-4-24T16:37:43Z
2022-04-24T14:39:07Z,42.805,6.029,13.3042,4.60075,2470.273,2022-4-24T16:40:47Z
2022-04-24T14:42:11Z,42.805,6.029,13.3028,4.60064,2470.273,2022-4-24T16:43:50Z
2022-04-24T14:45:14Z,42.805,6.029,13.3034,4.60072,2470.297,2022-4-24T16:46:53Z
2022-04-24T14:48:17Z,42.805,6.029,13.3034,4.60076,2470.31,2022-4-24T16:49:56Z
2022-04-24T14:51:20Z,42.805,6.029,13.3037,4.60072,2470.297,2022-4-24T16:52:59Z
2022-04-24T14:54:23Z,42.805,6.029,13.3034,4.60100,2470.297,2022-4-24T16:56:02Z
2022-04-24T14:57:26Z,42.805,6.029,13.3027,4.60078,2470.297,2022-4-24T16:59:05Z
2022-04-24T15:00:29Z,42.805,6.029,13.3025,4.60107,2470.273,2022-4-24T17:02:08Z
2022-04-24T15:03:32Z,42.805,6.029,13.3034,4.60069,2470.297,2022-4-24T17:05:12Z
2022-04-24T15:06:35Z,42.805,6.029,13.3043,4.60059,2470.297,2022-4-24T17:08:15Z
2022-04-24T15:09:39Z,42.805,6.029,13.3037,4.60074,2470.297,2022-4-24T17:11:18Z
2022-04-24T15:12:42Z,42.805,6.029,13.3058,4.60081,2470.297,2022-4-24T17:14:21Z